Tracking 22779 objects as of 10-Apr-2021
HD Live streaming from Space Station
objects crossing your sky now

SL-8 DEB

Track SL-8 DEB now!
10-day predictions


NORAD ID: 20435
Int'l Code: 1990-004D
Perigee: 708.7 km
Apogee: 729.2 km
Inclination: 74.0 °
Period: 99.0 minutes
Semi major axis: 7089 km
RCS: 0.0066 m2 (small)
Launch date: January 18, 1990
Source: Commonwealth of Independent States (former USSR) (CIS)
Launch site: PLESETSK MISSILE AND SPACE COMPLEX (PKMTR)

Note: This is SATELLITE DEBRIS
aabbcc
Your satellite tracking list
Your tracking list is empty




NASA's NSSDC Master Catalog

Two Line Element Set (TLE):
1 20435U 90004D   21099.88164095  .00000285  00000-0  73785-4 0  9998
2 20435  74.0267 315.3707 0014467  64.6414 305.9460 14.54257974646286
Source of the keplerian elements: AFSPC